#timestamp,LO_Frequency,Hit,StdDev 
1676257215.5,286047001.5,N
1676257235.3,286047005.4,Y
1676257255.1,286047004.3,P
1676257275.9,286047002.7,N
1676257295.7,286047000.4,N
1676257315.6,286047002.5,N
1676257335.4,286046999.7,N
1676257355.2,286047002.8,N
1676257375.1,286046999.7,N
1676257376.0,286046999.7,N
1676257395.8,286047003.9,N
1676257415.7,286047002.6,N
1676257435.5,286047000.4,N
1676257455.3,286046999.0,N
1676257475.2,286046998.7,N
1676257495.0,286046998.9,N
1676257495.9,286046998.9,N
1676257515.7,286047001.1,N
1676257535.6,286047002.6,N
1676257555.4,286047002.8,N
1676257575.3,286047002.5,N
1676257595.1,286047004.1,N
1676257596.0,286047004.1,N
1676257615.8,286047000.1,N
1676257635.7,286046998.6,N
1676257655.5,286047000.8,N
1676257675.3,286047000.6,N
1676257695.2,286047002.6,N
1676257715.0,286047002.3,N
1676257715.9,286047002.3,N
1676257735.8,286047002.6,N
1676257755.6,286047002.6,N
1676257775.4,286047000.9,N
1676257795.3,286047000.9,N
1676257815.1,286046998.4,N
1676257835.8,286046996.6,N
1676257855.7,286046997.5,N
1676257875.5,286046995.4,N
1676257895.4,286046998.7,N
1676257915.2,286046999.1,N
1676257935.0,286046999.3,N
1676257935.9,286046999.3,N
1676257955.8,286047001.0,N
1676257975.6,286046998.8,N
1676257995.4,286046998.2,N
1676258015.3,286046999.0,N
1676258035.1,286046996.5,N
1676258055.9,286047000.4,N
1676258075.7,286046999.9,N
1676258095.5,286047000.5,N
1676258115.4,286047001.8,N
1676258135.2,286047000.8,N
1676258155.0,286046997.4,N
1676258155.9,286046997.4,N
1676258175.8,286046997.4,N
1676258195.6,286046997.9,N
1676258215.5,286046999.6,N
1676258235.3,286047000.6,N
1676258255.1,286046999.7,N
1676258275.9,286047000.4,N
1676258295.7,286047000.3,N
1676258315.5,286047000.4,N
1676258335.4,286047000.8,N
1676258355.2,286047002.8,N
1676258375.1,286047001.2,N
1676258376.0,286047001.2,N
1676258395.8,286046999.9,N
1676258415.6,286047000.6,N
1676258435.5,286047000.5,N
1676258455.3,286046998.8,N
1676258475.1,286046998.9,N
1676258495.9,286046998.9,N
1676258515.7,286047000.8,N
1676258535.6,286046998.4,N
1676258555.4,286047000.6,N
1676258575.2,286046999.1,N
1676258595.1,286046996.5,N
1676258596.0,286046996.5,N
1676258615.8,286046998.7,N
1676258635.7,286046997.5,N
1676258655.5,286046997.7,N
1676258675.3,286046996.8,N
1676258695.2,286046997.9,N
1676258715.9,286046997.6,N
1676258735.8,286046999.2,N
1676258755.6,286046999.0,N
1676258775.4,286046999.6,N
1676258795.3,286046998.1,N
1676258815.1,286046999.8,N
1676258835.9,286047002.4,N
1676258855.7,286046998.5,N
1676258875.5,286046999.9,N
1676258895.4,286047000.5,N
1676258915.2,286046998.5,N
1676258935.0,286047000.4,N
1676258935.9,286047000.4,N
1676258955.8,286047000.5,N
1676258975.6,286047001.1,N
1676258995.5,286047002.2,N
1676259015.3,286046999.8,N
1676259035.1,286047002.3,N
1676259055.9,286047003.3,N
1676259075.7,286047004.2,N
1676259095.6,286047002.0,N
1676259115.4,286046999.9,N
1676259135.3,286047001.2,N
1676259155.1,286046999.9,N
1676259156.0,286046999.9,N
1676259175.8,286046998.4,N
1676259195.7,286046998.6,N
1676259215.5,286046999.0,N
1676259235.4,286046999.3,N
1676259255.2,286046999.4,N
1676259275.0,286046998.3,N
1676259275.9,286046998.3,N
1676259295.8,286046996.5,N
1676259315.6,286046999.0,N
1676259335.5,286047000.4,N
1676259355.3,286047000.5,N
1676259375.1,286047000.7,N
1676259395.9,286046998.4,N
1676259415.7,286047001.2,N
1676259435.5,286046997.7,N
1676259455.4,286046999.5,N
1676259475.2,286046999.1,N
1676259495.0,286046997.7,N
1676259496.0,286046997.7,N
1676259515.8,286046995.2,N
1676259535.6,286046997.3,N
1676259555.5,286046997.8,N
1676259575.3,286046996.8,N
1676259595.1,286047001.1,N
1676259615.9,286046998.2,N
1676259635.7,286046999.0,N
1676259655.5,286047002.3,N
1676259675.4,286047000.5,N
1676259695.2,286046998.4,N
1676259715.1,286046999.7,N
1676259716.0,286046999.7,N
1676259735.8,286047000.7,N
1676259755.6,286046998.8,N
1676259775.5,286046998.6,N
1676259795.3,286046999.0,N
1676259815.1,286046998.7,N
1676259835.9,286046999.4,N
1676259855.7,286046999.2,N
1676259875.6,286046998.6,N
1676259895.4,286046998.9,N
1676259915.2,286046999.1,N
1676259935.1,286047000.3,N
1676259936.0,286047000.3,N
1676259955.8,286047001.1,N
1676259975.7,286046999.0,N
1676259995.5,286046997.2,N
1676260015.3,286046998.8,N
1676260035.2,286047001.1,N
1676260055.0,286046997.3,N
1676260055.9,286046997.3,N
1676260075.8,286046995.3,Y
1676260095.6,286046995.9,P
1676260115.4,286046995.3,N
1676260135.3,286046999.2,N
1676260155.1,286046997.3,N
1676260175.8,286046999.3,N
1676260195.7,286046998.1,N
1676260215.5,286047001.1,N
1676260235.4,286046998.3,N
1676260255.2,286046998.5,N
1676260275.0,286047000.0,N
1676260275.9,286047000.0,N
1676260295.8,286047000.4,N
1676260315.6,286047002.0,N
1676260335.5,286046998.1,N
1676260355.3,286046998.2,N
1676260375.2,286047002.7,N
1676260395.9,286047002.4,N
1676260415.7,286047000.3,N
1676260435.6,286047002.4,N
1676260455.4,286047002.4,N
1676260475.3,286047000.9,N
1676260495.1,286047000.6,N
1676260496.0,286047000.6,N
1676260515.8,286046999.7,N
1676260535.7,286047002.3,N
1676260555.5,286047001.0,N
1676260575.3,286046998.9,N
1676260595.2,286046999.3,N
1676260615.0,286046999.3,N
1676260615.9,286046999.3,N
1676260635.8,286046999.4,N
1676260655.6,286047000.6,N
1676260675.4,286047000.4,N
1676260695.3,286047001.5,N
1676260715.1,286047004.7,Y
1676260735.8,286047003.2,P
1676260755.7,286047005.0,P
1676260775.5,286047001.3,N
1676260795.4,286047002.8,N
